Location: eljas
(40.1958°N, 6.8661°W)
Time: 16:47:03
(UTC+02:00)

Daily predictions for brighter satellites

Satellite Brightness Start Highest point End
(mag) Time Altitude Azimuth Time Altitude Azimuth Time Altitude Azimuth
CZ-2D R/B 4.0 22:15:45 10° S 22:19:29 55° W 22:23:15 10° NNW
BREEZE-M DEB (TANK) 1.7 22:17:37 10° NW 22:19:34 70° NNE 22:22:25 10° ESE
Cosmos 1624 Rocket 4.4 22:15:39 10° S 22:20:36 43° ESE 22:25:36 10° NNE
USA 186 2.2 22:17:53 10° S 22:20:50 60° W 22:24:01 10° NNW
Envisat 3.7 22:17:27 10° SE 22:22:05 37° ENE 22:26:44 10° N
In-Cosmos 22 Rocket 4.4 22:17:45 10° S 22:23:36 87° W 22:29:26 10° N
SL-27 R/B 4.0 22:21:40 10° N 22:24:37 22° ENE 22:27:32 10° ESE
Resurs 01 Rocket 4.3 22:24:37 10° SW 22:27:38 18° W 22:30:39 10° NW
Cosmos 1340 Rocket 2.8 22:26:16 10° S 22:30:14 89° W 22:34:17 10° N
Meteor 2-10 Rocket 3.9 22:24:43 10° N 22:30:31 65° ENE 22:36:10 10° SSE
SJ-11-01 4.3 22:28:56 10° SSE 22:33:40 73° ENE 22:38:24 10° N
SPOT 5 3.8 22:31:21 10° SE 22:36:07 37° ENE 22:41:00 10° N
YAOGAN 6 4.4 22:34:02 10° ESE 22:36:17 17° ENE 22:38:35 10° NNE
Okean 1-7 4.0 22:32:12 10° NNW 22:36:22 49° W 22:40:31 10° SSW
Cosmos 1939 Rocket 3.0 22:33:19 10° SSE 22:37:04 53° ENE 22:40:53 10° N
Cosmos 1782 3.5 22:33:54 10° N 22:37:39 37° ENE 22:41:14 11° SE
ALOS 3.7 22:34:19 10° SSW 22:38:40 39° W 22:43:04 10° NNW
Sich 1 Rocket 4.4 22:35:32 10° SSE 22:39:40 34° E 22:43:49 10° NNE
Cosmos 407 Rocket 4.3 22:35:11 10° N 22:40:02 36° ENE 22:44:22 13° SE
Cosmos 1461 4.2 22:38:52 10° SW 22:43:26 51° NW 22:47:52 10° NNE
Cosmos 1452 Rocket 4.5 22:40:12 10° SSE 22:44:34 27° E 22:48:58 10° NE
CZ-3C R/B 4.2 22:19:16 10° SW 22:45:11 23° SSW 22:52:11 11° SE
USA 234 4.2 22:40:33 10° ENE 22:45:35 23° ESE 22:50:34 10° S
Cosmos 1674 Rocket 3.9 22:42:02 10° N 22:46:24 51° E 22:50:28 11° SSE
ERS-1 Rocket 3.1 22:43:38 10° SSE 22:48:40 82° WSW 22:53:45 10° NNW
Meteor 2-6 Rocket 4.5 22:44:47 10° N 22:50:42 60° ENE 22:56:17 11° SSE
Cosmos 1190 Rocket 4.2 22:46:25 10° N 22:51:32 55° ENE 22:55:47 15° SE
Cosmos 2154 Rocket 4.4 22:46:19 10° SSE 22:52:08 44° E 22:57:59 10° NNE
EO 1 Delta rocket 4.5 22:46:01 10° NNE 22:52:25 57° E 22:57:29 10° S
Cosmos 1606 3.6 22:49:58 10° NNE 22:53:34 33° ENE 22:55:57 17° SE
ERBS 2.4 22:52:17 10° NW 22:55:45 74° NE 22:58:02 20° SE
Cosmos 2184 Rocket 4.1 22:53:01 10° S 22:59:10 81° W 23:05:23 10° N
PSLV R/B 3.9 22:57:47 21° SE 22:59:11 34° ENE 23:01:54 10° N
Cosmos 1892 3.4 22:56:29 10° SSW 23:00:13 55° W 23:04:01 10° N
SL-08 ROCKET BODY 4.4 22:54:28 10° S 23:00:32 87° W 23:06:32 10° N
MetOp-B 4.3 23:03:35 16° SSE 23:07:46 59° ENE 23:13:01 10° N
COSMOS 2406 3.3 23:03:27 10° NNW 23:09:13 77° WSW 23:14:03 15° SSE
CZ-4B R/B 4.0 23:06:40 10° NNE 23:11:17 37° E 23:14:11 19° SSE
Cosmos 1975 Rocket 4.0 23:10:39 10° NNE 23:14:32 31° ENE 23:16:14 23° ESE
Okean 3 4.2 23:10:42 10° N 23:14:43 37° ENE 23:16:35 25° SE
CENTAUR R/B 3.5 23:07:44 10° NW 23:15:32 63° WSW 23:22:43 14° SSE
deb Chang Zheng 4 4.1 23:12:59 10° N 23:17:20 61° WNW 23:21:42 10° SSW
SL-8 R/B 4.1 23:13:35 10° WSW 23:18:22 67° NNW 23:23:11 10° NE
ARGOS 3.6 23:15:17 21° SE 23:18:28 45° ENE 23:23:32 10° N
PSLV R/B 3.5 23:15:38 10° W 23:19:04 58° SSW 23:20:21 33° SE
ATLAS 5 CENTAUR R/B 2.6 23:13:23 10° NW 23:19:25 68° WSW 23:24:09 19° SSE
Cosmos 676 Rocket 4.1 23:16:17 10° NNW 23:21:26 61° ENE 23:24:25 25° SE
Cosmos 2056 Rocket 4.2 23:18:06 10° SW 23:23:09 54° WNW 23:28:12 10° N
Cosmos 1908 Rocket 3.5 23:19:17 12° S 23:23:18 82° E 23:27:44 10° N
Abrixas rocket 4.3 23:21:29 10° W 23:23:59 19° SW 23:25:11 16° SSW
SL-08 RB Rocket 4.3 23:24:32 26° ESE 23:26:31 41° ENE 23:30:51 10° N
Cosmos 2278 Rocket 2.4 23:22:11 10° S 23:27:35 50° ESE 23:33:03 10° NNE
USA 245 3.0 23:27:08 41° ESE 23:27:50 51° ENE 23:31:21 10° N
Cosmos 1174 3.7 23:25:13 10° NNW 23:28:23 45° NE 23:29:00 38° E
Cosmos 1954 Rocket 4.2 23:23:27 10° N 23:28:34 55° ENE 23:31:09 28° SE
Coronas F rocket 4.4 23:27:10 10° WSW 23:28:42 14° WNW 23:30:15 10° NW
Cosmos 1844 3.7 23:24:41 10° SSW 23:30:26 81° ESE 23:36:15 10° NNE
Cosmos 1378 Rocket 3.4 23:26:35 10° N 23:30:54 78° E 23:33:04 29° SSE
CZ-4 R/B 4.2 23:26:33 10° NNE 23:31:00 42° E 23:32:42 30° SE
STPSAT 2 (USA 217) 4.5 23:26:39 10° SSW 23:31:07 79° ESE 23:35:37 10° NNE
TIMED 4.4 23:27:12 10° SSW 23:31:32 81° ESE 23:35:56 10° NNE
Cosmos 1844 Rocket 3.1 23:33:32 10° SW 23:39:08 64° WNW 23:44:46 10° NNE
BREEZE-M DEB 4.2 23:36:48 10° SW 23:41:07 84° SE 23:42:37 27° ENE
Cosmos 1862 3.7 23:41:42 18° SSW 23:44:40 65° W 23:48:44 10° N
Cosmos 1184 Rocket 2.7 23:44:30 55° S 23:45:10 84° E 23:48:31 10° N
Cosmos 2082 Rocket 3.4 23:42:41 10° N 23:47:36 29° NE 23:49:53 22° E
Cosmos 2218 Rocket 4.4 23:44:58 30° SE 23:47:47 47° E 23:53:52 10° NNE
APEX 4.3 23:48:36 32° E 23:48:36 32° E 23:52:10 10° NE
Nadezhda 3 Rocket 4.3 23:43:01 10° NNW 23:49:19 70° W 23:54:01 19° S
Meteor 1-27 Rocket 4.1 23:44:19 10° NNW 23:49:48 60° W 23:53:32 20° S
Cosmos 2084 3.0 23:49:02 26° SSW 23:51:07 75° ESE 23:54:57 10° NE
H-2A R/B 4.0 23:50:00 10° SSW 23:53:31 24° W 23:57:01 10° NW
Cosmos 1825 2.8 23:53:16 23° SSW 23:55:26 53° W 23:59:11 10° N
